Time,TemperatureF,DewpointF,PressureIn,WindDirection,WindDirectionDegrees,WindSpeedMPH,WindSpeedGustMPH,Humidity,HourlyPrecipIn,Conditions,Clouds,dailyrainin,SoftwareType,DateUTC
2013-08-08 00:02:00,69.4,65.6,30.24,South,180,0.0,0.0,88,0.00,,,0.00,WUHU216HW,2013-08-08 04:02:00,
2013-08-08 00:07:00,69.4,65.6,30.23,SE,135,0.0,0.0,88,0.00,,,0.00,WUHU216HW,2013-08-08 04:07:00,
2013-08-08 00:12:00,69.4,65.6,30.24,SE,135,0.0,0.0,88,0.00,,,0.00,WUHU216HW,2013-08-08 04:12:00,
2013-08-08 00:17:00,69.2,65.5,30.24,SE,135,0.0,0.0,88,0.00,,,0.00,WUHU216HW,2013-08-08 04:17:00,
2013-08-08 00:22:00,69.0,65.3,30.24,East,90,0.0,0.0,88,0.00,,,0.00,WUHU216HW,2013-08-08 04:22:00,
2013-08-08 00:27:00,69.0,65.3,30.24,East,90,0.0,0.0,88,0.00,,,0.00,WUHU216HW,2013-08-08 04:27:00,
2013-08-08 00:32:00,69.0,65.3,30.24,East,90,0.0,0.0,88,0.00,,,0.00,WUHU216HW,2013-08-08 04:32:00,
2013-08-08 00:38:00,69.0,65.3,30.24,East,90,0.0,0.0,88,0.00,,,0.00,WUHU216HW,2013-08-08 04:38:00,
2013-08-08 00:43:00,69.0,65.3,30.24,East,90,0.0,0.0,88,0.00,,,0.00,WUHU216HW,2013-08-08 04:43:00,
2013-08-08 00:48:00,68.9,65.1,30.24,East,90,0.0,0.0,88,0.00,,,0.00,WUHU216HW,2013-08-08 04:48:00,
2013-08-08 00:53:00,68.9,65.1,30.24,East,90,0.0,0.0,88,0.00,,,0.00,WUHU216HW,2013-08-08 04:53:00,
2013-08-08 00:58:00,68.7,64.9,30.24,East,90,0.0,0.0,88,0.00,,,0.00,WUHU216HW,2013-08-08 04:58:00,
2013-08-08 01:03:00,68.7,64.9,30.24,East,90,0.0,0.0,88,0.00,,,0.00,WUHU216HW,2013-08-08 05:03:00,
2013-08-08 01:08:00,68.5,64.8,30.24,East,90,0.0,0.0,88,0.00,,,0.00,WUHU216HW,2013-08-08 05:08:00,
2013-08-08 01:13:00,68.5,64.8,30.24,East,90,0.0,0.0,88,0.00,,,0.00,WUHU216HW,2013-08-08 05:13:00,
2013-08-08 01:18:00,68.3,64.9,30.23,East,90,0.0,0.0,89,0.00,,,0.00,WUHU216HW,2013-08-08 05:18:00,
2013-08-08 01:23:00,68.1,64.7,30.23,East,90,0.0,0.0,89,0.00,,,0.00,WUHU216HW,2013-08-08 05:23:00,
2013-08-08 01:28:00,68.1,64.7,30.23,East,90,0.0,0.0,89,0.00,,,0.00,WUHU216HW,2013-08-08 05:28:00,
2013-08-08 01:33:00,68.1,64.7,30.23,East,90,0.0,0.0,89,0.00,,,0.00,WUHU216HW,2013-08-08 05:33:00,
2013-08-08 01:38:00,68.1,64.7,30.22,East,90,0.0,0.0,89,0.00,,,0.00,WUHU216HW,2013-08-08 05:38:00,
2013-08-08 01:43:00,68.1,64.7,30.22,East,90,0.0,0.0,89,0.00,,,0.00,WUHU216HW,2013-08-08 05:43:00,
2013-08-08 01:48:00,68.0,64.6,30.22,East,90,0.0,0.0,89,0.00,,,0.00,WUHU216HW,2013-08-08 05:48:00,
2013-08-08 01:53:00,67.8,64.1,30.22,East,90,0.0,0.0,88,0.00,,,0.00,WUHU216HW,2013-08-08 05:53:00,
2013-08-08 01:58:00,67.8,64.1,30.22,East,90,0.0,0.0,88,0.00,,,0.00,WUHU216HW,2013-08-08 05:58:00,
2013-08-08 02:03:00,67.8,64.1,30.22,East,90,0.0,0.0,88,0.00,,,0.00,WUHU216HW,2013-08-08 06:03:00,
2013-08-08 02:08:00,67.8,64.1,30.22,East,90,0.0,0.0,88,0.00,,,0.00,WUHU216HW,2013-08-08 06:08:00,
2013-08-08 02:13:00,67.8,64.1,30.22,East,90,0.0,0.0,88,0.00,,,0.00,WUHU216HW,2013-08-08 06:13:00,
2013-08-08 02:18:00,67.6,63.9,30.22,East,90,0.0,0.0,88,0.00,,,0.00,WUHU216HW,2013-08-08 06:18:00,
2013-08-08 02:23:00,67.6,63.9,30.21,East,90,0.0,0.0,88,0.00,,,0.00,WUHU216HW,2013-08-08 06:23:00,
2013-08-08 02:28:00,67.6,63.9,30.22,East,90,0.0,0.0,88,0.00,,,0.00,WUHU216HW,2013-08-08 06:28:00,
2013-08-08 02:33:00,67.6,63.9,30.22,East,90,0.0,0.0,88,0.00,,,0.00,WUHU216HW,2013-08-08 06:33:00,
2013-08-08 02:38:00,67.2,63.5,30.22,East,90,0.0,0.0,88,0.00,,,0.00,WUHU216HW,2013-08-08 06:38:00,
2013-08-08 02:43:00,67.2,63.5,30.22,East,90,0.0,0.0,88,0.00,,,0.00,WUHU216HW,2013-08-08 06:43:00,
2013-08-08 02:48:00,67.2,63.8,30.22,East,90,0.0,0.0,89,0.00,,,0.00,WUHU216HW,2013-08-08 06:48:00,
2013-08-08 02:53:00,67.2,63.8,30.22,East,90,0.0,0.0,89,0.00,,,0.00,WUHU216HW,2013-08-08 06:53:00,
2013-08-08 02:58:00,67.1,63.7,30.22,East,90,0.0,0.0,89,0.00,,,0.00,WUHU216HW,2013-08-08 06:58:00,
2013-08-08 03:03:00,67.1,63.7,30.22,East,90,0.0,0.0,89,0.00,,,0.00,WUHU216HW,2013-08-08 07:03:00,
2013-08-08 03:08:00,67.1,63.7,30.22,East,90,0.0,0.0,89,0.00,,,0.00,WUHU216HW,2013-08-08 07:08:00,
2013-08-08 03:13:00,67.1,63.7,30.22,East,90,0.0,0.0,89,0.00,,,0.00,WUHU216HW,2013-08-08 07:13:00,
2013-08-08 03:18:00,67.1,63.7,30.22,East,90,0.0,0.0,89,0.00,,,0.00,WUHU216HW,2013-08-08 07:18:00,
2013-08-08 03:23:00,67.2,63.8,30.22,East,90,0.0,0.0,89,0.00,,,0.00,WUHU216HW,2013-08-08 07:23:00,
2013-08-08 03:28:00,67.2,63.8,30.22,East,90,0.0,0.0,89,0.00,,,0.00,WUHU216HW,2013-08-08 07:28:00,
2013-08-08 03:33:00,67.2,63.8,30.22,East,90,0.0,0.0,89,0.00,,,0.00,WUHU216HW,2013-08-08 07:33:00,
2013-08-08 03:38:00,67.2,63.8,30.22,East,90,0.0,0.0,89,0.00,,,0.00,WUHU216HW,2013-08-08 07:38:00,
2013-08-08 03:43:00,67.2,63.8,30.22,East,90,0.0,0.0,89,0.00,,,0.00,WUHU216HW,2013-08-08 07:43:00,
2013-08-08 03:48:00,67.2,63.8,30.22,East,90,0.0,0.0,89,0.00,,,0.00,WUHU216HW,2013-08-08 07:48:00,
2013-08-08 03:53:00,67.2,63.8,30.22,East,90,0.0,0.0,89,0.00,,,0.00,WUHU216HW,2013-08-08 07:53:00,
2013-08-08 03:58:00,67.1,63.7,30.22,East,90,0.0,0.0,89,0.00,,,0.00,WUHU216HW,2013-08-08 07:58:00,
2013-08-08 04:03:00,67.1,63.7,30.22,East,90,0.0,0.0,89,0.00,,,0.00,WUHU216HW,2013-08-08 08:03:00,
2013-08-08 04:08:00,67.1,63.7,30.22,East,90,0.0,0.0,89,0.00,,,0.00,WUHU216HW,2013-08-08 08:08:00,
2013-08-08 04:13:00,66.9,63.5,30.22,East,90,0.0,0.0,89,0.00,,,0.00,WUHU216HW,2013-08-08 08:13:00,
2013-08-08 04:18:00,66.9,63.5,30.22,East,90,0.0,0.0,89,0.00,,,0.00,WUHU216HW,2013-08-08 08:18:00,
2013-08-08 04:23:00,66.7,63.3,30.22,East,90,0.0,0.0,89,0.00,,,0.00,WUHU216HW,2013-08-08 08:23:00,
2013-08-08 04:28:00,66.7,63.3,30.22,East,90,0.0,0.0,89,0.00,,,0.00,WUHU216HW,2013-08-08 08:28:00,
2013-08-08 04:33:00,66.7,63.3,30.22,East,90,0.0,0.0,89,0.00,,,0.00,WUHU216HW,2013-08-08 08:33:00,
2013-08-08 04:38:00,66.7,63.3,30.22,East,90,0.0,0.0,89,0.00,,,0.00,WUHU216HW,2013-08-08 08:38:00,
2013-08-08 04:43:00,66.7,63.3,30.22,East,90,0.0,0.0,89,0.00,,,0.00,WUHU216HW,2013-08-08 08:43:00,
2013-08-08 04:48:00,66.5,63.1,30.22,East,90,0.0,0.0,89,0.00,,,0.00,WUHU216HW,2013-08-08 08:48:00,
2013-08-08 04:53:00,66.5,63.1,30.22,East,90,0.0,0.0,89,0.00,,,0.00,WUHU216HW,2013-08-08 08:53:00,
2013-08-08 04:58:00,66.5,62.9,30.22,East,90,0.0,0.0,89,0.00,,,0.00,WUHU216HW,2013-08-08 08:58:00,
2013-08-08 05:03:00,66.3,62.9,30.22,East,90,0.0,0.0,89,0.00,,,0.00,WUHU216HW,2013-08-08 09:03:00,
2013-08-08 05:08:00,66.3,63.3,30.21,East,90,0.0,0.0,90,0.00,,,0.00,WUHU216HW,2013-08-08 09:08:00,
2013-08-08 05:13:00,66.3,63.3,30.22,East,90,0.0,0.0,90,0.00,,,0.00,WUHU216HW,2013-08-08 09:13:00,
2013-08-08 05:18:00,66.3,63.3,30.21,East,90,0.0,0.0,90,0.00,,,0.00,WUHU216HW,2013-08-08 09:18:00,
2013-08-08 05:23:00,66.2,63.1,30.21,East,90,0.0,0.0,90,0.00,,,0.00,WUHU216HW,2013-08-08 09:23:00,
2013-08-08 05:28:00,66.2,63.1,30.21,East,90,0.0,0.0,90,0.00,,,0.00,WUHU216HW,2013-08-08 09:28:00,
2013-08-08 05:33:00,66.0,62.9,30.21,East,90,0.0,0.0,90,0.00,,,0.00,WUHU216HW,2013-08-08 09:33:00,
2013-08-08 05:38:00,66.0,62.9,30.21,East,90,0.0,0.0,90,0.00,,,0.00,WUHU216HW,2013-08-08 09:38:00,
2013-08-08 05:43:00,66.0,62.9,30.21,East,90,0.0,0.0,90,0.00,,,0.00,WUHU216HW,2013-08-08 09:43:00,
2013-08-08 05:48:00,66.0,62.9,30.21,East,90,0.0,0.0,90,0.00,,,0.00,WUHU216HW,2013-08-08 09:48:00,
2013-08-08 05:53:00,66.0,62.9,30.21,East,90,0.0,0.0,90,0.00,,,0.00,WUHU216HW,2013-08-08 09:53:00,
2013-08-08 05:58:00,66.0,62.9,30.21,East,90,0.0,0.0,90,0.00,,,0.00,WUHU216HW,2013-08-08 09:58:00,
2013-08-08 06:03:00,66.0,62.9,30.21,East,90,0.0,0.0,90,0.00,,,0.00,WUHU216HW,2013-08-08 10:03:00,
2013-08-08 06:08:00,66.0,62.9,30.21,East,90,0.0,0.0,90,0.00,,,0.00,WUHU216HW,2013-08-08 10:08:00,
2013-08-08 06:13:00,66.0,62.9,30.21,East,90,0.0,0.0,90,0.00,,,0.00,WUHU216HW,2013-08-08 10:13:00,
2013-08-08 06:18:00,66.0,62.9,30.21,East,90,0.0,0.0,90,0.00,,,0.00,WUHU216HW,2013-08-08 10:18:00,
2013-08-08 06:23:00,66.0,62.9,30.21,East,90,0.0,0.0,90,0.00,,,0.00,WUHU216HW,2013-08-08 10:23:00,
2013-08-08 06:28:00,66.0,63.1,30.21,East,90,0.0,0.0,90,0.00,,,0.00,WUHU216HW,2013-08-08 10:28:00,
2013-08-08 06:33:00,66.2,63.1,30.21,East,90,0.0,0.0,90,0.00,,,0.00,WUHU216HW,2013-08-08 10:33:00,
2013-08-08 06:38:00,66.2,63.1,30.21,East,90,0.0,0.0,90,0.00,,,0.00,WUHU216HW,2013-08-08 10:38:00,
2013-08-08 06:43:00,66.3,63.3,30.22,East,90,0.0,0.0,90,0.00,,,0.00,WUHU216HW,2013-08-08 10:43:00,
2013-08-08 06:48:00,66.3,63.6,30.22,East,90,0.0,0.0,91,0.00,,,0.00,WUHU216HW,2013-08-08 10:48:00,
2013-08-08 06:53:00,66.3,63.6,30.22,East,90,0.0,0.0,91,0.00,,,0.00,WUHU216HW,2013-08-08 10:53:00,
2013-08-08 06:58:00,66.3,63.6,30.22,East,90,0.0,0.0,91,0.00,,,0.00,WUHU216HW,2013-08-08 10:58:00,
2013-08-08 07:03:00,66.5,63.8,30.22,East,90,0.0,0.0,91,0.00,,,0.00,WUHU216HW,2013-08-08 11:03:00,
2013-08-08 07:08:00,66.5,63.8,30.23,East,90,0.0,0.0,91,0.00,,,0.00,WUHU216HW,2013-08-08 11:08:00,
2013-08-08 07:13:00,66.5,63.8,30.22,East,90,0.0,0.0,91,0.00,,,0.00,WUHU216HW,2013-08-08 11:13:00,
2013-08-08 07:18:00,66.7,63.9,30.23,East,90,0.0,0.0,91,0.00,,,0.00,WUHU216HW,2013-08-08 11:18:00,
2013-08-08 07:23:00,66.7,63.9,30.23,East,90,0.0,0.0,91,0.00,,,0.00,WUHU216HW,2013-08-08 11:23:00,
2013-08-08 07:28:00,66.5,63.9,30.23,East,90,0.0,0.0,91,0.00,,,0.00,WUHU216HW,2013-08-08 11:28:00,
2013-08-08 07:33:00,66.7,63.9,30.23,East,90,0.0,0.0,91,0.00,,,0.00,WUHU216HW,2013-08-08 11:33:00,
2013-08-08 07:38:00,66.7,63.9,30.23,East,90,0.0,0.0,91,0.00,,,0.00,WUHU216HW,2013-08-08 11:38:00,
2013-08-08 07:43:00,66.7,63.9,30.23,East,90,0.0,0.0,91,0.00,,,0.00,WUHU216HW,2013-08-08 11:43:00,
2013-08-08 07:48:00,66.9,64.1,30.23,ESE,113,0.0,0.0,91,0.00,,,0.00,WUHU216HW,2013-08-08 11:48:00,
2013-08-08 07:53:00,66.9,64.1,30.23,ESE,113,0.0,0.0,91,0.00,,,0.00,WUHU216HW,2013-08-08 11:53:00,
2013-08-08 07:58:00,67.1,64.3,30.24,ESE,113,0.0,0.0,91,0.00,,,0.00,WUHU216HW,2013-08-08 11:58:00,
2013-08-08 08:03:00,67.1,64.3,30.24,ESE,113,0.0,0.0,91,0.00,,,0.00,WUHU216HW,2013-08-08 12:03:00,
2013-08-08 08:08:00,67.1,64.3,30.24,ESE,113,0.0,0.0,91,0.00,,,0.00,WUHU216HW,2013-08-08 12:08:00,
2013-08-08 08:14:00,67.2,64.5,30.24,ESE,113,0.0,0.0,91,0.00,,,0.00,WUHU216HW,2013-08-08 12:14:00,
2013-08-08 08:19:00,67.2,64.5,30.24,ESE,113,0.0,0.0,91,0.00,,,0.00,WUHU216HW,2013-08-08 12:19:00,
2013-08-08 08:24:00,67.2,64.5,30.24,ESE,113,0.0,0.0,91,0.00,,,0.00,WUHU216HW,2013-08-08 12:24:00,
2013-08-08 08:29:00,67.2,64.5,30.24,ESE,113,0.0,0.0,91,0.00,,,0.00,WUHU216HW,2013-08-08 12:29:00,
2013-08-08 08:34:00,67.2,64.5,30.24,ESE,113,0.0,0.0,91,0.00,,,0.00,WUHU216HW,2013-08-08 12:34:00,
2013-08-08 08:39:00,67.6,64.8,30.25,ESE,113,0.0,0.0,91,0.00,,,0.00,WUHU216HW,2013-08-08 12:39:00,
2013-08-08 08:44:00,67.6,64.8,30.24,ESE,113,0.0,0.0,91,0.00,,,0.00,WUHU216HW,2013-08-08 12:44:00,
2013-08-08 08:49:00,67.6,64.8,30.24,ESE,113,0.0,0.0,91,0.00,,,0.00,WUHU216HW,2013-08-08 12:49:00,
2013-08-08 08:54:00,67.8,65.0,30.24,ESE,113,0.0,0.0,91,0.00,,,0.00,WUHU216HW,2013-08-08 12:54:00,
2013-08-08 08:59:00,67.8,65.0,30.24,ESE,113,0.0,0.0,91,0.00,,,0.00,WUHU216HW,2013-08-08 12:59:00,
2013-08-08 09:04:00,68.0,65.2,30.24,ESE,113,0.0,0.0,91,0.00,,,0.00,WUHU216HW,2013-08-08 13:04:00,
2013-08-08 09:09:00,68.1,65.4,30.24,ESE,113,0.0,0.0,91,0.00,,,0.00,WUHU216HW,2013-08-08 13:09:00,
2013-08-08 09:14:00,68.3,65.7,30.24,ESE,113,0.0,0.0,91,0.00,,,0.00,WUHU216HW,2013-08-08 13:14:00,
2013-08-08 09:19:00,68.9,66.1,30.24,ESE,113,0.0,0.0,91,0.00,,,0.00,WUHU216HW,2013-08-08 13:19:00,
2013-08-08 09:24:00,69.0,66.3,30.24,ESE,113,0.0,0.0,91,0.00,,,0.00,WUHU216HW,2013-08-08 13:24:00,
2013-08-08 09:29:00,69.6,66.6,30.24,SSE,158,0.0,0.0,91,0.00,,,0.00,WUHU216HW,2013-08-08 13:29:00,
2013-08-08 09:34:00,69.8,67.0,30.24,SSE,158,0.0,0.0,91,0.00,,,0.00,WUHU216HW,2013-08-08 13:34:00,
2013-08-08 09:39:00,70.3,67.5,30.24,SSE,158,0.0,0.0,91,0.00,,,0.00,WUHU216HW,2013-08-08 13:39:00,
2013-08-08 09:44:00,70.5,67.9,30.24,SSE,158,0.0,0.0,91,0.00,,,0.00,WUHU216HW,2013-08-08 13:44:00,
2013-08-08 09:54:00,71.2,68.1,30.24,SE,135,0.0,0.0,90,0.00,,,0.00,WUHU216HW,2013-08-08 13:54:00,
2013-08-08 09:59:00,71.4,68.3,30.24,SE,135,0.0,0.0,90,0.00,,,0.00,WUHU216HW,2013-08-08 13:59:00,
2013-08-08 10:04:00,71.7,68.7,30.24,SE,135,0.0,0.0,90,0.00,,,0.00,WUHU216HW,2013-08-08 14:04:00,
2013-08-08 10:09:00,72.1,68.7,30.24,SSE,158,0.0,0.0,89,0.00,,,0.00,WUHU216HW,2013-08-08 14:09:00,
2013-08-08 10:14:00,72.3,68.9,30.25,SSE,158,0.0,0.0,89,0.00,,,0.00,WUHU216HW,2013-08-08 14:14:00,
2013-08-08 10:19:00,72.6,69.2,30.25,SSE,158,0.0,0.0,89,0.00,,,0.00,WUHU216HW,2013-08-08 14:19:00,
2013-08-08 10:24:00,73.0,69.2,30.25,SSE,158,0.0,0.0,88,0.00,,,0.00,WUHU216HW,2013-08-08 14:24:00,
2013-08-08 10:29:00,73.2,69.4,30.25,SSE,158,0.0,0.0,88,0.00,,,0.00,WUHU216HW,2013-08-08 14:29:00,
2013-08-08 10:34:00,73.5,69.8,30.25,SSE,158,0.0,0.0,88,0.00,,,0.00,WUHU216HW,2013-08-08 14:34:00,
2013-08-08 10:39:00,73.9,69.8,30.25,SE,135,0.0,0.0,87,0.00,,,0.00,WUHU216HW,2013-08-08 14:39:00,
2013-08-08 10:44:00,74.3,69.8,30.25,SE,135,0.0,0.0,86,0.00,,,0.00,WUHU216HW,2013-08-08 14:44:00,
2013-08-08 10:49:00,74.4,70.0,30.25,SE,135,0.0,0.0,86,0.00,,,0.00,WUHU216HW,2013-08-08 14:49:00,
2013-08-08 10:54:00,75.0,70.2,30.26,SE,135,0.0,0.0,85,0.00,,,0.00,WUHU216HW,2013-08-08 14:54:00,
2013-08-08 10:59:00,75.0,70.2,30.25,SE,135,0.0,0.0,85,0.00,,,0.00,WUHU216HW,2013-08-08 14:59:00,
2013-08-08 11:04:00,75.3,70.5,30.25,SE,135,0.0,0.0,85,0.00,,,0.00,WUHU216HW,2013-08-08 15:04:00,
2013-08-08 11:09:00,75.3,70.2,30.25,SE,135,0.0,0.0,84,0.00,,,0.00,WUHU216HW,2013-08-08 15:09:00,
2013-08-08 11:14:00,75.5,70.4,30.25,SE,135,0.0,0.0,84,0.00,,,0.00,WUHU216HW,2013-08-08 15:14:00,
2013-08-08 11:19:00,75.5,70.4,30.26,SE,135,0.0,0.0,84,0.00,,,0.00,WUHU216HW,2013-08-08 15:19:00,
2013-08-08 11:24:00,75.7,70.2,30.25,SE,135,0.0,0.0,83,0.00,,,0.00,WUHU216HW,2013-08-08 15:24:00,
2013-08-08 11:29:00,75.7,70.2,30.26,SE,135,0.0,0.0,83,0.00,,,0.00,WUHU216HW,2013-08-08 15:29:00,
2013-08-08 11:34:00,75.9,70.4,30.26,SE,135,0.0,0.0,83,0.00,,,0.00,WUHU216HW,2013-08-08 15:34:00,
2013-08-08 11:39:00,75.7,70.0,30.26,SE,135,0.0,0.0,82,0.00,,,0.00,WUHU216HW,2013-08-08 15:39:00,
2013-08-08 11:44:00,75.9,70.4,30.25,SE,135,0.0,0.0,83,0.00,,,0.00,WUHU216HW,2013-08-08 15:44:00,
2013-08-08 11:49:00,76.1,70.5,30.26,SE,135,0.0,0.0,83,0.00,,,0.00,WUHU216HW,2013-08-08 15:49:00,
2013-08-08 11:54:00,76.2,70.3,30.26,SE,135,0.0,0.0,82,0.00,,,0.00,WUHU216HW,2013-08-08 15:54:00,
2013-08-08 11:59:00,76.4,70.9,30.25,SE,135,0.0,0.0,83,0.00,,,0.00,WUHU216HW,2013-08-08 15:59:00,
2013-08-08 12:04:00,76.6,70.7,30.26,SE,135,0.0,0.0,82,0.00,,,0.00,WUHU216HW,2013-08-08 16:04:00,
2013-08-08 12:09:00,76.8,70.8,30.25,SE,135,0.0,0.0,82,0.00,,,0.00,WUHU216HW,2013-08-08 16:09:00,
2013-08-08 12:14:00,76.8,70.8,30.25,SE,135,0.0,0.0,82,0.00,,,0.00,WUHU216HW,2013-08-08 16:14:00,
2013-08-08 12:19:00,77.1,71.2,30.25,SE,135,0.0,0.0,82,0.00,,,0.00,WUHU216HW,2013-08-08 16:19:00,
2013-08-08 12:24:00,77.5,71.6,30.25,ESE,113,0.0,0.0,82,0.00,,,0.00,WUHU216HW,2013-08-08 16:24:00,
2013-08-08 12:29:00,77.7,71.4,30.24,SE,135,0.0,0.0,81,0.00,,,0.00,WUHU216HW,2013-08-08 16:29:00,
2013-08-08 12:34:00,78.0,71.7,30.25,SE,135,0.0,0.0,81,0.00,,,0.00,WUHU216HW,2013-08-08 16:34:00,
2013-08-08 12:39:00,78.8,72.5,30.25,WSW,248,0.0,0.0,81,0.00,,,0.00,WUHU216HW,2013-08-08 16:39:00,
2013-08-08 12:44:00,79.3,73.0,30.24,WSW,248,0.0,0.0,81,0.00,,,0.00,WUHU216HW,2013-08-08 16:44:00,
2013-08-08 12:49:00,79.8,73.2,30.24,WSW,248,0.0,0.0,80,0.00,,,0.00,WUHU216HW,2013-08-08 16:49:00,
2013-08-08 12:54:00,80.7,73.7,30.24,SE,135,0.0,0.0,79,0.00,,,0.00,WUHU216HW,2013-08-08 16:54:00,
2013-08-08 12:59:00,81.1,73.6,30.24,WSW,248,0.0,0.0,78,0.00,,,0.00,WUHU216HW,2013-08-08 16:59:00,
2013-08-08 13:04:00,81.5,73.6,30.24,SSE,158,0.0,0.0,77,0.00,,,0.00,WUHU216HW,2013-08-08 17:04:00,
2013-08-08 13:09:00,82.0,73.3,30.24,SSE,158,0.0,0.0,75,0.00,,,0.00,WUHU216HW,2013-08-08 17:09:00,
2013-08-08 13:14:00,82.2,73.0,30.24,SSE,158,0.0,0.0,74,0.00,,,0.00,WUHU216HW,2013-08-08 17:14:00,
2013-08-08 13:19:00,82.2,72.6,30.24,SSE,158,0.0,0.0,73,0.00,,,0.00,WUHU216HW,2013-08-08 17:19:00,
2013-08-08 13:24:00,82.2,72.6,30.24,SSE,158,0.0,0.0,73,0.00,,,0.00,WUHU216HW,2013-08-08 17:24:00,
2013-08-08 13:29:00,82.2,72.6,30.24,SSE,158,0.0,0.0,73,0.00,,,0.00,WUHU216HW,2013-08-08 17:29:00,
2013-08-08 13:34:00,82.2,72.6,30.24,SSE,158,0.0,0.0,73,0.00,,,0.00,WUHU216HW,2013-08-08 17:34:00,
2013-08-08 13:39:00,82.5,73.0,30.24,SW,225,0.0,0.0,73,0.00,,,0.00,WUHU216HW,2013-08-08 17:39:00,
2013-08-08 13:44:00,82.9,73.3,30.24,SSE,158,0.0,0.0,73,0.00,,,0.00,WUHU216HW,2013-08-08 17:44:00,
2013-08-08 13:49:00,83.3,73.3,30.24,SSW,203,0.0,0.0,72,0.00,,,0.00,WUHU216HW,2013-08-08 17:49:00,
2013-08-08 13:54:00,84.0,74.4,30.24,SW,225,0.0,0.0,73,0.00,,,0.00,WUHU216HW,2013-08-08 17:54:00,
2013-08-08 13:59:00,84.3,74.3,30.23,WSW,248,0.0,0.0,72,0.00,,,0.00,WUHU216HW,2013-08-08 17:59:00,
2013-08-08 14:04:00,84.7,74.7,30.23,WSW,248,0.0,0.0,72,0.00,,,0.00,WUHU216HW,2013-08-08 18:04:00,
2013-08-08 14:10:00,85.1,74.6,30.22,WSW,248,0.0,0.0,71,0.00,,,0.00,WUHU216HW,2013-08-08 18:10:00,
2013-08-08 14:15:00,85.4,74.1,30.22,WSW,248,0.0,0.0,69,0.00,,,0.00,WUHU216HW,2013-08-08 18:15:00,
2013-08-08 14:20:00,85.6,73.9,30.22,SW,225,0.0,0.0,68,0.00,,,0.00,WUHU216HW,2013-08-08 18:20:00,
2013-08-08 14:25:00,85.6,73.9,30.22,SE,135,0.0,0.0,68,0.00,,,0.00,WUHU216HW,2013-08-08 18:25:00,
2013-08-08 14:30:00,85.6,73.9,30.22,SE,135,0.0,0.0,68,0.00,,,0.00,WUHU216HW,2013-08-08 18:30:00,
2013-08-08 14:35:00,85.6,73.9,30.22,SSE,158,0.0,0.0,68,0.00,,,0.00,WUHU216HW,2013-08-08 18:35:00,
2013-08-08 14:40:00,84.9,72.2,30.22,SE,135,0.0,0.0,66,0.00,,,0.00,WUHU216HW,2013-08-08 18:40:00,
2013-08-08 14:45:00,84.5,71.9,30.22,SSE,158,0.0,0.0,66,0.00,,,0.00,WUHU216HW,2013-08-08 18:45:00,
2013-08-08 14:50:00,84.0,71.4,30.22,South,180,0.0,0.0,66,0.00,,,0.00,WUHU216HW,2013-08-08 18:50:00,
2013-08-08 14:55:00,83.4,70.8,30.22,SSE,158,0.0,0.0,66,0.00,,,0.00,WUHU216HW,2013-08-08 18:55:00,
2013-08-08 15:00:00,82.9,70.3,30.21,SE,135,0.0,0.0,66,0.00,,,0.00,WUHU216HW,2013-08-08 19:00:00,
2013-08-08 15:05:00,82.5,70.8,30.22,SE,135,0.0,0.0,68,0.00,,,0.00,WUHU216HW,2013-08-08 19:05:00,
2013-08-08 15:10:00,81.6,70.5,30.21,SE,135,0.0,0.0,69,0.00,,,0.00,WUHU216HW,2013-08-08 19:10:00,
2013-08-08 15:15:00,81.1,70.8,30.21,SE,135,0.0,0.0,71,0.00,,,0.00,WUHU216HW,2013-08-08 19:15:00,
2013-08-08 15:20:00,80.9,71.0,30.21,SE,135,0.0,0.0,72,0.00,,,0.00,WUHU216HW,2013-08-08 19:20:00,
2013-08-08 15:25:00,80.7,71.3,30.21,SE,135,0.0,0.0,73,0.00,,,0.00,WUHU216HW,2013-08-08 19:25:00,
2013-08-08 15:30:00,80.7,71.3,30.21,SE,135,0.0,0.0,73,0.00,,,0.00,WUHU216HW,2013-08-08 19:30:00,
2013-08-08 15:35:00,80.9,71.4,30.20,SE,135,0.0,0.0,73,0.00,,,0.00,WUHU216HW,2013-08-08 19:35:00,
2013-08-08 15:40:00,81.1,71.6,30.21,ESE,113,0.0,0.0,73,0.00,,,0.00,WUHU216HW,2013-08-08 19:40:00,
2013-08-08 15:45:00,81.1,71.2,30.21,SE,135,0.0,0.0,72,0.00,,,0.00,WUHU216HW,2013-08-08 19:45:00,
2013-08-08 15:50:00,81.1,71.2,30.21,SSE,158,0.0,0.0,72,0.00,,,0.00,WUHU216HW,2013-08-08 19:50:00,
2013-08-08 15:55:00,81.1,71.2,30.21,SSE,158,0.0,0.0,72,0.00,,,0.00,WUHU216HW,2013-08-08 19:55:00,
2013-08-08 16:00:00,81.1,70.4,30.21,WSW,248,0.8,0.8,70,0.00,,,0.00,WUHU216HW,2013-08-08 20:00:00,
2013-08-08 16:05:00,81.3,70.6,30.21,SSE,158,0.0,0.8,70,0.00,,,0.00,WUHU216HW,2013-08-08 20:05:00,
2013-08-08 16:10:00,81.3,71.0,30.21,WSW,248,0.0,0.8,71,0.00,,,0.00,WUHU216HW,2013-08-08 20:10:00,
2013-08-08 16:15:00,81.6,71.3,30.21,SSE,158,0.0,0.0,71,0.00,,,0.00,WUHU216HW,2013-08-08 20:15:00,
2013-08-08 16:20:00,81.6,71.7,30.20,SSE,158,0.0,0.0,72,0.00,,,0.00,WUHU216HW,2013-08-08 20:20:00,
2013-08-08 16:25:00,81.8,71.5,30.20,SSE,158,0.0,0.0,71,0.00,,,0.00,WUHU216HW,2013-08-08 20:25:00,
2013-08-08 16:30:00,81.6,71.3,30.20,SE,135,0.0,0.0,71,0.00,,,0.00,WUHU216HW,2013-08-08 20:30:00,
2013-08-08 16:35:00,81.8,71.5,30.20,SE,135,0.0,0.0,71,0.00,,,0.00,WUHU216HW,2013-08-08 20:35:00,
2013-08-08 16:40:00,81.6,71.3,30.20,SSE,158,0.0,0.0,71,0.00,,,0.00,WUHU216HW,2013-08-08 20:40:00,
2013-08-08 16:45:00,81.6,71.3,30.19,SE,135,0.0,0.0,71,0.00,,,0.00,WUHU216HW,2013-08-08 20:45:00,
2013-08-08 16:50:00,81.6,71.3,30.20,WSW,248,0.0,0.0,71,0.00,,,0.00,WUHU216HW,2013-08-08 20:50:00,
2013-08-08 16:55:00,81.6,71.3,30.20,ESE,113,0.0,0.0,71,0.00,,,0.00,WUHU216HW,2013-08-08 20:55:00,
2013-08-08 17:00:00,81.8,71.5,30.19,SE,135,0.0,0.0,71,0.00,,,0.00,WUHU216HW,2013-08-08 21:00:00,
2013-08-08 17:05:00,81.6,71.3,30.19,ESE,113,0.0,0.0,71,0.00,,,0.00,WUHU216HW,2013-08-08 21:05:00,
2013-08-08 17:10:00,81.6,71.3,30.20,SSE,158,0.0,0.0,71,0.00,,,0.00,WUHU216HW,2013-08-08 21:10:00,
2013-08-08 17:15:00,81.3,71.0,30.20,SE,135,0.0,0.0,71,0.00,,,0.00,WUHU216HW,2013-08-08 21:15:00,
2013-08-08 17:21:00,81.1,71.2,30.20,SSE,158,0.0,0.0,72,0.00,,,0.00,WUHU216HW,2013-08-08 21:21:00,
2013-08-08 17:26:00,80.7,70.9,30.20,SSE,158,0.0,0.0,72,0.00,,,0.00,WUHU216HW,2013-08-08 21:26:00,
2013-08-08 17:31:00,80.6,70.5,30.21,SSE,158,0.0,0.0,72,0.00,,,0.00,WUHU216HW,2013-08-08 21:31:00,
2013-08-08 17:36:00,80.4,70.9,30.21,ESE,113,0.0,0.0,73,0.00,,,0.00,WUHU216HW,2013-08-08 21:36:00,
2013-08-08 17:41:00,80.4,70.9,30.21,SE,135,0.0,0.0,73,0.00,,,0.00,WUHU216HW,2013-08-08 21:41:00,
2013-08-08 17:46:00,79.8,70.4,30.21,SE,135,0.0,0.0,73,0.00,,,0.00,WUHU216HW,2013-08-08 21:46:00,
2013-08-08 17:51:00,79.7,70.2,30.21,SE,135,0.0,0.0,73,0.00,,,0.00,WUHU216HW,2013-08-08 21:51:00,
2013-08-08 17:57:00,79.5,70.4,30.21,SE,135,0.0,0.0,74,0.00,,,0.00,WUHU216HW,2013-08-08 21:57:00,
2013-08-08 18:02:00,79.3,70.7,30.21,ESE,113,0.0,0.0,75,0.00,,,0.00,WUHU216HW,2013-08-08 22:02:00,
2013-08-08 18:07:00,78.9,70.3,30.21,ESE,113,0.0,0.0,75,0.00,,,0.00,WUHU216HW,2013-08-08 22:07:00,
2013-08-08 18:12:00,78.9,70.3,30.21,ESE,113,0.0,0.0,75,0.00,,,0.00,WUHU216HW,2013-08-08 22:12:00,
2013-08-08 18:17:00,78.6,70.3,30.21,ESE,113,0.0,0.0,76,0.00,,,0.00,WUHU216HW,2013-08-08 22:17:00,
2013-08-08 18:22:00,78.6,70.7,30.21,NE,45,0.0,0.0,77,0.00,,,0.00,WUHU216HW,2013-08-08 22:22:00,
2013-08-08 18:28:00,78.4,70.5,30.21,NE,45,0.0,0.0,77,0.00,,,0.00,WUHU216HW,2013-08-08 22:28:00,
2013-08-08 18:33:00,78.0,70.6,30.21,NE,45,0.0,0.0,78,0.00,,,0.00,WUHU216HW,2013-08-08 22:33:00,
2013-08-08 18:38:00,78.0,70.6,30.21,NE,45,0.0,0.0,78,0.00,,,0.00,WUHU216HW,2013-08-08 22:38:00,
2013-08-08 18:44:00,77.9,70.4,30.21,NE,45,0.0,0.0,78,0.00,,,0.00,WUHU216HW,2013-08-08 22:44:00,
2013-08-08 18:49:00,78.0,70.6,30.21,ENE,68,0.0,0.0,78,0.00,,,0.00,WUHU216HW,2013-08-08 22:49:00,
2013-08-08 18:54:00,78.0,70.6,30.21,ENE,68,0.0,0.0,78,0.00,,,0.00,WUHU216HW,2013-08-08 22:54:00,
2013-08-08 18:59:00,78.0,70.6,30.21,ENE,68,0.0,0.0,78,0.00,,,0.00,WUHU216HW,2013-08-08 22:59:00,
2013-08-08 19:04:00,78.0,70.6,30.21,ENE,68,0.0,0.0,78,0.00,,,0.00,WUHU216HW,2013-08-08 23:04:00,
2013-08-08 19:09:00,78.0,70.6,30.21,ENE,68,0.0,0.0,78,0.00,,,0.00,WUHU216HW,2013-08-08 23:09:00,
2013-08-08 19:14:00,78.0,71.0,30.21,ENE,68,0.0,0.0,79,0.00,,,0.00,WUHU216HW,2013-08-08 23:14:00,
2013-08-08 19:19:00,78.4,71.3,30.21,ENE,68,0.0,0.0,79,0.00,,,0.00,WUHU216HW,2013-08-08 23:19:00,
2013-08-08 19:24:00,78.4,71.3,30.21,ENE,68,0.0,0.0,79,0.00,,,0.00,WUHU216HW,2013-08-08 23:24:00,
2013-08-08 19:29:00,78.4,71.3,30.21,ENE,68,0.0,0.0,79,0.00,,,0.00,WUHU216HW,2013-08-08 23:29:00,
2013-08-08 19:34:00,78.0,70.8,30.21,ENE,68,0.0,0.0,78,0.00,,,0.00,WUHU216HW,2013-08-08 23:34:00,
2013-08-08 19:39:00,78.0,70.6,30.21,ENE,68,0.0,0.0,78,0.00,,,0.00,WUHU216HW,2013-08-08 23:39:00,
2013-08-08 19:44:00,77.9,70.4,30.22,NE,45,0.0,0.0,78,0.00,,,0.00,WUHU216HW,2013-08-08 23:44:00,
2013-08-08 19:49:00,77.1,70.1,30.21,NE,45,0.0,0.0,79,0.00,,,0.00,WUHU216HW,2013-08-08 23:49:00,
2013-08-08 19:54:00,76.8,69.7,30.22,NE,45,0.0,0.0,79,0.00,,,0.00,WUHU216HW,2013-08-08 23:54:00,
2013-08-08 19:59:00,76.6,70.0,30.21,NE,45,0.0,0.0,80,0.00,,,0.00,WUHU216HW,2013-08-08 23:59:00,
2013-08-08 20:04:00,76.2,69.6,30.22,NE,45,0.0,0.0,80,0.00,,,0.00,WUHU216HW,2013-08-09 00:04:00,
2013-08-08 20:09:00,76.2,69.6,30.22,NE,45,0.0,0.0,80,0.00,,,0.00,WUHU216HW,2013-08-09 00:09:00,
2013-08-08 20:14:00,76.1,69.5,30.21,NE,45,0.0,0.0,80,0.00,,,0.00,WUHU216HW,2013-08-09 00:14:00,
2013-08-08 20:19:00,76.1,69.3,30.21,NE,45,0.0,0.0,80,0.00,,,0.00,WUHU216HW,2013-08-09 00:19:00,
2013-08-08 20:25:00,75.9,69.3,30.21,NE,45,0.0,0.0,80,0.00,,,0.00,WUHU216HW,2013-08-09 00:25:00,
2013-08-08 20:30:00,75.7,69.5,30.22,ENE,68,0.0,0.0,81,0.00,,,0.00,WUHU216HW,2013-08-09 00:30:00,
2013-08-08 20:35:00,75.3,69.2,30.21,ESE,113,0.0,0.0,81,0.00,,,0.00,WUHU216HW,2013-08-09 00:35:00,
2013-08-08 20:40:00,75.3,69.2,30.22,SE,135,0.0,0.0,81,0.00,,,0.00,WUHU216HW,2013-08-09 00:40:00,
2013-08-08 20:45:00,75.0,68.8,30.22,South,180,0.0,0.0,81,0.00,,,0.00,WUHU216HW,2013-08-09 00:45:00,
2013-08-08 20:50:00,74.8,68.7,30.22,SSE,158,0.0,0.0,81,0.00,,,0.00,WUHU216HW,2013-08-09 00:50:00,
2013-08-08 20:55:00,74.6,68.5,30.22,SE,135,0.0,0.0,81,0.00,,,0.00,WUHU216HW,2013-08-09 00:55:00,
2013-08-08 21:00:00,74.4,68.3,30.22,SSE,158,0.0,0.0,81,0.00,,,0.00,WUHU216HW,2013-08-09 01:00:00,
2013-08-08 21:05:00,74.3,68.1,30.22,SSE,158,0.0,0.0,81,0.00,,,0.00,WUHU216HW,2013-08-09 01:05:00,
2013-08-08 21:10:00,74.3,68.5,30.22,SSE,158,0.0,0.0,82,0.00,,,0.00,WUHU216HW,2013-08-09 01:10:00,
2013-08-08 21:15:00,73.9,68.3,30.22,SSE,158,0.0,0.0,82,0.00,,,0.00,WUHU216HW,2013-08-09 01:15:00,
2013-08-08 21:20:00,73.9,68.1,30.22,SE,135,0.0,0.0,82,0.00,,,0.00,WUHU216HW,2013-08-09 01:20:00,
2013-08-08 21:25:00,73.7,68.3,30.22,SE,135,0.0,0.0,83,0.00,,,0.00,WUHU216HW,2013-08-09 01:25:00,
2013-08-08 21:31:00,73.7,68.3,30.22,SSE,158,0.0,0.0,83,0.00,,,0.00,WUHU216HW,2013-08-09 01:31:00,
2013-08-08 21:36:00,73.5,68.1,30.22,SSE,158,0.0,0.0,83,0.00,,,0.00,WUHU216HW,2013-08-09 01:36:00,
2013-08-08 21:41:00,73.5,68.1,30.22,ESE,113,0.0,0.0,83,0.00,,,0.00,WUHU216HW,2013-08-09 01:41:00,
2013-08-08 21:46:00,73.5,68.1,30.22,South,180,0.0,0.0,83,0.00,,,0.00,WUHU216HW,2013-08-09 01:46:00,
2013-08-08 21:51:00,73.5,68.1,30.22,SSE,158,0.0,0.0,83,0.00,,,0.00,WUHU216HW,2013-08-09 01:51:00,
2013-08-08 21:56:00,73.5,68.1,30.22,South,180,0.0,0.0,83,0.00,,,0.00,WUHU216HW,2013-08-09 01:56:00,
2013-08-08 22:01:00,73.4,67.9,30.22,SE,135,0.0,0.0,83,0.00,,,0.00,WUHU216HW,2013-08-09 02:01:00,
2013-08-08 22:06:00,73.4,68.2,30.22,SE,135,0.0,0.0,84,0.00,,,0.00,WUHU216HW,2013-08-09 02:06:00,
2013-08-08 22:12:00,73.2,68.1,30.22,South,180,0.0,0.0,84,0.00,,,0.00,WUHU216HW,2013-08-09 02:12:00,
2013-08-08 22:17:00,73.2,68.1,30.22,SE,135,0.0,0.0,84,0.00,,,0.00,WUHU216HW,2013-08-09 02:17:00,
2013-08-08 22:22:00,73.2,68.1,30.22,SE,135,0.0,0.0,84,0.00,,,0.00,WUHU216HW,2013-08-09 02:22:00,
2013-08-08 22:27:00,73.2,68.1,30.22,SE,135,0.0,0.0,84,0.00,,,0.00,WUHU216HW,2013-08-09 02:27:00,
2013-08-08 22:32:00,73.2,68.1,30.22,SE,135,0.0,0.0,84,0.00,,,0.00,WUHU216HW,2013-08-09 02:32:00,
2013-08-08 22:37:00,73.2,68.1,30.21,SE,135,0.0,0.0,84,0.00,,,0.00,WUHU216HW,2013-08-09 02:37:00,
2013-08-08 22:42:00,73.2,68.1,30.21,SE,135,0.0,0.0,84,0.00,,,0.00,WUHU216HW,2013-08-09 02:42:00,
2013-08-08 22:47:00,73.0,67.9,30.21,SE,135,0.0,0.0,84,0.00,,,0.00,WUHU216HW,2013-08-09 02:47:00,
2013-08-08 22:52:00,73.0,67.9,30.21,SE,135,0.0,0.0,84,0.00,,,0.00,WUHU216HW,2013-08-09 02:52:00,
2013-08-08 22:57:00,73.0,67.9,30.21,SE,135,0.0,0.0,84,0.00,,,0.00,WUHU216HW,2013-08-09 02:57:00,
2013-08-08 23:02:00,72.8,67.7,30.21,SE,135,0.0,0.0,84,0.00,,,0.00,WUHU216HW,2013-08-09 03:02:00,
2013-08-08 23:07:00,72.8,67.7,30.21,SE,135,0.0,0.0,84,0.00,,,0.00,WUHU216HW,2013-08-09 03:07:00,
2013-08-08 23:12:00,72.6,67.9,30.21,SE,135,0.0,0.0,85,0.00,,,0.00,WUHU216HW,2013-08-09 03:12:00,
2013-08-08 23:17:00,72.6,67.9,30.21,SE,135,0.0,0.0,85,0.00,,,0.00,WUHU216HW,2013-08-09 03:17:00,
2013-08-08 23:22:00,72.6,67.9,30.22,SE,135,0.0,0.0,85,0.00,,,0.00,WUHU216HW,2013-08-09 03:22:00,
2013-08-08 23:27:00,72.5,67.7,30.22,SE,135,0.0,0.0,85,0.00,,,0.00,WUHU216HW,2013-08-09 03:27:00,
2013-08-08 23:32:00,72.5,67.7,30.21,SE,135,0.0,0.0,85,0.00,,,0.00,WUHU216HW,2013-08-09 03:32:00,
2013-08-08 23:37:00,72.5,67.7,30.22,SE,135,0.0,0.0,85,0.00,,,0.00,WUHU216HW,2013-08-09 03:37:00,
2013-08-08 23:43:00,72.5,67.7,30.22,SE,135,0.0,0.0,85,0.00,,,0.00,WUHU216HW,2013-08-09 03:43:00,
2013-08-08 23:48:00,72.3,67.5,30.22,SE,135,0.0,0.0,85,0.00,,,0.00,WUHU216HW,2013-08-09 03:48:00,
2013-08-08 23:53:00,72.3,67.5,30.23,SE,135,0.0,0.0,85,0.00,,,0.00,WUHU216HW,2013-08-09 03:53:00,
2013-08-08 23:58:00,72.3,67.5,30.23,SE,135,0.0,0.0,85,0.00,,,0.00,WUHU216HW,2013-08-09 03:58:00,